Time,TemperatureF,DewpointF,PressureIn,WindDirection,WindDirectionDegrees,WindSpeedMPH,WindSpeedGustMPH,Humidity,HourlyPrecipIn,Conditions,Clouds,dailyrainin,SoftwareType,DateUTC
2013-09-08 10:16:00,54.3,49.6,29.58,North,349,0.0,0.0,84,0.00,CLR,,0.43,WeatherDisplay:10.37,2013-09-08 18:16:00,
2013-09-08 10:17:00,54.4,49.7,29.58,North,349,0.0,0.0,84,0.00,CLR,,0.43,WeatherDisplay:10.37,2013-09-08 18:17:00,
2013-09-08 10:22:00,54.8,50.4,29.58,North,349,0.0,0.0,85,0.00,CLR,,0.43,WeatherDisplay:10.37,2013-09-08 18:22:00,
2013-09-08 11:37:00,57.4,50.9,29.63,North,349,0.0,0.0,79,0.00,CLR,,0.43,WeatherDisplay:10.37,2013-09-08 19:37:00,
2013-09-08 11:42:00,57.3,50.8,29.63,North,349,0.0,0.0,79,0.00,CLR,,0.43,WeatherDisplay:10.37,2013-09-08 19:42:00,
2013-09-08 11:47:00,57.3,50.8,29.63,North,349,0.0,0.0,79,0.00,CLR,,0.43,WeatherDisplay:10.37,2013-09-08 19:47:00,
2013-09-08 11:52:00,57.3,50.5,29.64,North,349,0.0,0.0,78,0.00,CLR,,0.43,WeatherDisplay:10.37,2013-09-08 19:52:00,
2013-09-08 11:57:00,57.5,51.0,29.64,North,349,0.0,0.0,79,0.00,CLR,,0.43,WeatherDisplay:10.37,2013-09-08 19:57:00,
2013-09-08 12:02:00,57.8,50.3,29.64,North,349,0.0,0.0,76,0.00,CLR,,0.43,WeatherDisplay:10.37,2013-09-08 20:02:00,
2013-09-08 12:07:00,58.0,49.8,29.64,North,349,0.0,0.0,74,0.00,CLR,,0.43,WeatherDisplay:10.37,2013-09-08 20:07:00,
2013-09-08 12:12:00,58.3,50.0,29.65,North,349,0.0,0.0,74,0.00,CLR,,0.43,WeatherDisplay:10.37,2013-09-08 20:12:00,
2013-09-08 12:17:00,58.5,50.6,29.65,North,349,0.0,0.0,75,0.00,CLR,,0.43,WeatherDisplay:10.37,2013-09-08 20:17:00,
2013-09-08 12:22:00,58.5,50.2,29.65,North,349,0.0,0.0,74,0.00,CLR,,0.43,WeatherDisplay:10.37,2013-09-08 20:22:00,
2013-09-08 12:27:00,58.4,50.1,29.65,North,349,0.0,0.0,74,0.00,CLR,,0.43,WeatherDisplay:10.37,2013-09-08 20:27:00,
2013-09-08 12:32:00,58.2,50.7,29.65,North,349,0.0,0.0,76,0.00,CLR,,0.43,WeatherDisplay:10.37,2013-09-08 20:32:00,
2013-09-08 12:37:00,58.3,50.4,29.66,North,349,0.0,0.0,75,0.00,CLR,,0.43,WeatherDisplay:10.37,2013-09-08 20:37:00,
2013-09-08 12:42:00,58.2,50.3,29.66,North,349,0.0,0.0,75,0.00,CLR,,0.43,WeatherDisplay:10.37,2013-09-08 20:42:00,
2013-09-08 12:47:00,58.0,49.8,29.66,North,349,0.0,0.0,74,0.00,CLR,,0.43,WeatherDisplay:10.37,2013-09-08 20:47:00,
2013-09-08 12:52:00,58.0,49.8,29.66,North,349,0.0,0.0,74,0.00,CLR,,0.43,WeatherDisplay:10.37,2013-09-08 20:52:00,
2013-09-08 12:57:00,58.2,50.0,29.67,North,349,0.0,0.0,74,0.00,CLR,,0.43,WeatherDisplay:10.37,2013-09-08 20:57:00,
2013-09-08 13:02:00,58.8,50.2,29.67,North,349,0.0,0.0,73,0.00,CLR,,0.43,WeatherDisplay:10.37,2013-09-08 21:02:00,
2013-09-08 13:07:00,59.2,51.3,29.67,North,349,0.0,0.0,75,0.00,CLR,,0.43,WeatherDisplay:10.37,2013-09-08 21:07:00,
2013-09-08 13:12:00,59.4,50.7,29.67,North,349,0.0,0.0,73,0.00,CLR,,0.43,WeatherDisplay:10.37,2013-09-08 21:12:00,
2013-09-08 13:17:00,59.3,51.0,29.68,North,349,0.0,0.0,74,0.00,CLR,,0.43,WeatherDisplay:10.37,2013-09-08 21:17:00,
2013-09-08 13:22:00,59.1,49.7,29.68,North,349,0.0,0.0,71,0.00,CLR,,0.43,WeatherDisplay:10.37,2013-09-08 21:22:00,
2013-09-08 13:27:00,59.6,50.9,29.68,North,349,0.0,0.0,73,0.00,CLR,,0.43,WeatherDisplay:10.37,2013-09-08 21:27:00,
2013-09-08 13:32:00,59.9,50.8,29.68,North,349,0.0,0.0,72,0.00,CLR,,0.43,WeatherDisplay:10.37,2013-09-08 21:32:00,
2013-09-08 13:37:00,60.1,51.0,29.69,North,349,0.0,0.0,72,0.00,CLR,,0.43,WeatherDisplay:10.37,2013-09-08 21:37:00,
2013-09-08 13:42:00,60.0,50.2,29.69,NNW,348,0.0,0.0,70,0.00,CLR,,0.43,WeatherDisplay:10.37,2013-09-08 21:42:00,
2013-09-08 13:47:00,60.1,49.5,29.70,North,349,0.0,0.0,68,0.00,CLR,,0.43,WeatherDisplay:10.37,2013-09-08 21:47:00,
2013-09-08 13:52:00,60.2,49.2,29.70,North,349,0.0,0.0,67,0.00,CLR,,0.43,WeatherDisplay:10.37,2013-09-08 21:52:00,
2013-09-08 13:57:00,60.2,49.2,29.71,North,349,0.0,0.0,67,0.00,CLR,,0.43,WeatherDisplay:10.37,2013-09-08 21:57:00,
2013-09-08 14:02:00,60.5,49.9,29.71,North,349,0.0,0.0,68,0.00,CLR,,0.43,WeatherDisplay:10.37,2013-09-08 22:02:00,
2013-09-08 14:07:00,60.7,49.7,29.72,North,349,0.0,0.0,67,0.00,CLR,,0.43,WeatherDisplay:10.37,2013-09-08 22:07:00,
2013-09-08 14:12:00,60.3,49.3,29.72,North,349,0.0,0.0,67,0.00,CLR,,0.43,WeatherDisplay:10.37,2013-09-08 22:12:00,
2013-09-08 14:17:00,59.3,49.1,29.72,North,349,0.0,0.0,69,0.00,CLR,,0.43,WeatherDisplay:10.37,2013-09-08 22:17:00,
2013-09-08 14:22:00,59.0,50.0,29.72,North,349,0.0,0.0,72,0.00,CLR,,0.43,WeatherDisplay:10.37,2013-09-08 22:22:00,
2013-09-08 14:27:00,58.4,49.4,29.73,NNW,348,0.0,0.0,72,0.00,CLR,,0.43,WeatherDisplay:10.37,2013-09-08 22:27:00,
2013-09-08 14:32:00,58.3,49.7,29.73,North,349,0.0,0.0,73,0.00,CLR,,0.43,WeatherDisplay:10.37,2013-09-08 22:32:00,
2013-09-08 14:37:00,58.2,50.0,29.73,North,349,0.0,0.0,74,0.00,CLR,,0.43,WeatherDisplay:10.37,2013-09-08 22:37:00,
2013-09-08 14:42:00,57.9,49.3,29.74,North,349,0.0,0.0,73,0.00,CLR,,0.43,WeatherDisplay:10.37,2013-09-08 22:42:00,
2013-09-08 14:47:00,57.8,49.2,29.74,North,349,0.0,0.0,73,0.00,CLR,,0.43,WeatherDisplay:10.37,2013-09-08 22:47:00,
2013-09-08 14:52:00,57.8,49.2,29.74,NNW,348,0.0,0.0,73,0.00,CLR,,0.43,WeatherDisplay:10.37,2013-09-08 22:52:00,
2013-09-08 14:57:00,57.6,49.7,29.74,North,349,0.0,0.0,75,0.00,CLR,,0.43,WeatherDisplay:10.37,2013-09-08 22:57:00,
2013-09-08 15:02:00,57.4,49.5,29.75,NNW,348,0.0,0.0,75,0.00,CLR,,0.43,WeatherDisplay:10.37,2013-09-08 23:02:00,
2013-09-08 15:07:00,57.4,49.5,29.75,NNW,348,0.0,0.0,75,0.00,CLR,,0.43,WeatherDisplay:10.37,2013-09-08 23:07:00,
2013-09-08 15:12:00,57.4,49.5,29.75,North,349,0.0,0.0,75,0.00,CLR,,0.43,WeatherDisplay:10.37,2013-09-08 23:12:00,
2013-09-08 15:17:00,57.5,49.3,29.75,North,349,0.0,0.0,74,0.00,CLR,,0.43,WeatherDisplay:10.37,2013-09-08 23:17:00,
2013-09-08 15:22:00,57.6,49.4,29.76,NNW,348,0.0,0.0,74,0.00,CLR,,0.43,WeatherDisplay:10.37,2013-09-08 23:22:00,
2013-09-08 15:27:00,58.2,49.2,29.76,NNW,348,0.0,0.0,72,0.00,CLR,,0.43,WeatherDisplay:10.37,2013-09-08 23:27:00,
2013-09-08 15:32:00,58.6,49.6,29.76,North,349,0.0,0.0,72,0.00,CLR,,0.43,WeatherDisplay:10.37,2013-09-08 23:32:00,
2013-09-08 15:37:00,58.4,49.4,29.77,North,349,0.0,0.0,72,0.00,CLR,,0.43,WeatherDisplay:10.37,2013-09-08 23:37:00,
2013-09-08 15:42:00,58.1,48.7,29.77,NNW,348,0.0,0.0,71,0.00,CLR,,0.43,WeatherDisplay:10.37,2013-09-08 23:42:00,
2013-09-08 15:47:00,57.9,48.9,29.77,NNW,348,0.0,0.0,72,0.00,CLR,,0.43,WeatherDisplay:10.37,2013-09-08 23:47:00,
2013-09-08 15:52:00,57.9,49.7,29.77,North,349,0.0,0.0,74,0.00,CLR,,0.43,WeatherDisplay:10.37,2013-09-08 23:52:00,
2013-09-08 15:57:00,57.8,49.2,29.78,North,349,0.0,0.0,73,0.00,CLR,,0.43,WeatherDisplay:10.37,2013-09-08 23:57:00,
2013-09-08 16:02:00,57.5,49.3,29.78,NNW,348,0.0,0.0,74,0.00,CLR,,0.43,WeatherDisplay:10.37,2013-09-09 00:02:00,
2013-09-08 16:07:00,57.3,48.7,29.78,North,349,0.0,0.0,73,0.00,CLR,,0.43,WeatherDisplay:10.37,2013-09-09 00:07:00,
2013-09-08 16:12:00,57.0,48.4,29.78,North,349,0.0,0.0,73,0.00,CLR,,0.43,WeatherDisplay:10.37,2013-09-09 00:12:00,
2013-09-08 16:17:00,56.8,48.2,29.79,North,349,0.0,0.0,73,0.00,CLR,,0.43,WeatherDisplay:10.37,2013-09-09 00:17:00,
2013-09-08 16:22:00,56.7,48.1,29.79,North,349,0.0,0.0,73,0.00,CLR,,0.43,WeatherDisplay:10.37,2013-09-09 00:22:00,
2013-09-08 16:27:00,56.5,47.6,29.79,North,349,0.0,0.0,72,0.00,CLR,,0.43,WeatherDisplay:10.37,2013-09-09 00:27:00,
2013-09-08 16:32:00,56.3,47.4,29.79,NNW,348,0.0,0.0,72,0.00,CLR,,0.43,WeatherDisplay:10.37,2013-09-09 00:32:00,
2013-09-08 16:37:00,56.3,47.4,29.80,NNW,348,0.0,0.0,72,0.00,CLR,,0.43,WeatherDisplay:10.37,2013-09-09 00:37:00,
2013-09-08 16:42:00,56.2,46.9,29.80,NNW,348,0.0,0.0,71,0.00,CLR,,0.43,WeatherDisplay:10.37,2013-09-09 00:42:00,
2013-09-08 16:47:00,56.0,46.4,29.80,NNW,348,0.0,0.0,70,0.00,CLR,,0.43,WeatherDisplay:10.37,2013-09-09 00:47:00,
2013-09-08 16:52:00,56.0,47.1,29.80,North,349,0.0,0.0,72,0.00,CLR,,0.43,WeatherDisplay:10.37,2013-09-09 00:52:00,
2013-09-08 16:57:00,55.6,46.7,29.80,North,349,0.0,0.0,72,0.00,CLR,,0.43,WeatherDisplay:10.37,2013-09-09 00:57:00,
2013-09-08 17:02:00,55.4,46.9,29.80,North,349,0.0,0.0,73,0.00,CLR,,0.43,WeatherDisplay:10.37,2013-09-09 01:02:00,
2013-09-08 17:07:00,55.3,47.2,29.81,North,349,0.0,0.0,74,0.00,CLR,,0.43,WeatherDisplay:10.37,2013-09-09 01:07:00,
2013-09-08 17:12:00,55.4,47.2,29.81,North,349,0.0,0.0,74,0.00,CLR,,0.43,WeatherDisplay:10.37,2013-09-09 01:12:00,
2013-09-08 17:17:00,55.4,47.6,29.81,North,349,0.0,0.0,75,0.00,CLR,,0.43,WeatherDisplay:10.37,2013-09-09 01:17:00,
2013-09-08 17:22:00,55.3,47.9,29.82,North,349,0.0,0.0,76,0.00,CLR,,0.43,WeatherDisplay:10.37,2013-09-09 01:22:00,
2013-09-08 17:27:00,55.1,48.0,29.82,North,349,0.0,0.0,77,0.00,CLR,,0.43,WeatherDisplay:10.37,2013-09-09 01:27:00,
2013-09-08 17:32:00,54.9,48.2,29.82,NNW,348,0.0,0.0,78,0.00,CLR,,0.43,WeatherDisplay:10.37,2013-09-09 01:32:00,
2013-09-08 17:37:00,54.8,48.4,29.83,North,349,0.0,0.0,79,0.00,CLR,,0.43,WeatherDisplay:10.37,2013-09-09 01:37:00,
2013-09-08 17:42:00,54.6,48.2,29.83,North,349,0.0,0.0,79,0.00,CLR,,0.43,WeatherDisplay:10.37,2013-09-09 01:42:00,
2013-09-08 17:47:00,54.5,48.1,29.83,NNW,348,0.0,0.0,79,0.00,CLR,,0.43,WeatherDisplay:10.37,2013-09-09 01:47:00,
2013-09-08 17:52:00,54.5,47.8,29.83,NNW,348,0.0,0.0,78,0.00,CLR,,0.43,WeatherDisplay:10.37,2013-09-09 01:52:00,
2013-09-08 17:57:00,54.6,48.2,29.83,NNW,348,0.0,0.0,79,0.00,CLR,,0.43,WeatherDisplay:10.37,2013-09-09 01:57:00,
2013-09-08 18:02:00,54.6,48.6,29.84,North,349,0.0,0.0,80,0.00,CLR,,0.43,WeatherDisplay:10.37,2013-09-09 02:02:00,
2013-09-08 18:07:00,54.6,48.2,29.84,NNW,348,0.0,0.0,79,0.00,CLR,,0.43,WeatherDisplay:10.37,2013-09-09 02:07:00,
2013-09-08 18:12:00,54.5,48.5,29.84,NNW,348,0.0,0.0,80,0.00,CLR,,0.43,WeatherDisplay:10.37,2013-09-09 02:12:00,
2013-09-08 18:17:00,54.5,49.1,29.84,North,349,0.0,0.0,82,0.00,CLR,,0.43,WeatherDisplay:10.37,2013-09-09 02:17:00,
2013-09-08 18:22:00,54.5,49.1,29.84,North,349,0.0,0.0,82,0.00,CLR,,0.43,WeatherDisplay:10.37,2013-09-09 02:22:00,
2013-09-08 18:27:00,54.4,49.0,29.84,NNW,348,0.0,0.0,82,0.00,CLR,,0.43,WeatherDisplay:10.37,2013-09-09 02:27:00,
2013-09-08 18:32:00,54.3,48.9,29.84,North,349,0.0,0.0,82,0.00,CLR,,0.43,WeatherDisplay:10.37,2013-09-09 02:32:00,
2013-09-08 18:37:00,54.2,48.8,29.84,North,349,0.0,0.0,82,0.00,CLR,,0.43,WeatherDisplay:10.37,2013-09-09 02:37:00,
2013-09-08 18:42:00,54.2,49.1,29.84,NNW,348,0.0,0.0,83,0.00,CLR,,0.43,WeatherDisplay:10.37,2013-09-09 02:42:00,
2013-09-08 18:47:00,54.2,49.1,29.84,North,349,0.0,0.0,83,0.00,CLR,,0.43,WeatherDisplay:10.37,2013-09-09 02:47:00,
2013-09-08 18:52:00,54.2,49.1,29.84,North,349,0.0,0.0,83,0.00,CLR,,0.43,WeatherDisplay:10.37,2013-09-09 02:52:00,
2013-09-08 18:57:00,54.2,49.1,29.84,NNW,348,0.0,0.0,83,0.00,CLR,,0.43,WeatherDisplay:10.37,2013-09-09 02:57:00,
2013-09-08 19:02:00,54.2,49.1,29.84,NNW,348,0.0,0.0,83,0.00,CLR,,0.43,WeatherDisplay:10.37,2013-09-09 03:02:00,
2013-09-08 19:07:00,54.1,49.1,29.84,NNW,348,0.0,0.0,83,0.00,CLR,,0.43,WeatherDisplay:10.37,2013-09-09 03:07:00,
2013-09-08 19:12:00,54.0,49.3,29.84,North,349,0.0,0.0,84,0.00,CLR,,0.43,WeatherDisplay:10.37,2013-09-09 03:12:00,
2013-09-08 19:17:00,53.8,49.1,29.84,North,349,0.0,0.0,84,0.00,CLR,,0.43,WeatherDisplay:10.37,2013-09-09 03:17:00,
2013-09-08 19:22:00,53.7,49.3,29.85,NNW,348,0.0,0.0,85,0.00,CLR,,0.43,WeatherDisplay:10.37,2013-09-09 03:22:00,
2013-09-08 19:27:00,53.6,49.5,29.85,NNW,348,0.0,0.0,86,0.00,CLR,,0.43,WeatherDisplay:10.37,2013-09-09 03:27:00,
2013-09-08 19:32:00,53.5,49.7,29.85,North,349,0.0,0.0,87,0.00,CLR,,0.43,WeatherDisplay:10.37,2013-09-09 03:32:00,
2013-09-08 19:37:00,53.4,49.6,29.85,NNW,348,0.0,0.0,87,0.00,CLR,,0.43,WeatherDisplay:10.37,2013-09-09 03:37:00,
2013-09-08 19:42:00,53.3,49.2,29.85,NNW,348,0.0,0.0,86,0.00,CLR,,0.43,WeatherDisplay:10.37,2013-09-09 03:42:00,
2013-09-08 19:47:00,53.2,49.1,29.85,North,349,0.0,0.0,86,0.00,CLR,,0.43,WeatherDisplay:10.37,2013-09-09 03:47:00,
2013-09-08 19:52:00,53.2,49.1,29.85,North,349,0.0,0.0,86,0.00,CLR,,0.43,WeatherDisplay:10.37,2013-09-09 03:52:00,
2013-09-08 19:57:00,53.1,49.0,29.85,North,349,0.0,0.0,86,0.00,CLR,,0.43,WeatherDisplay:10.37,2013-09-09 03:57:00,
2013-09-08 20:01:00,53.1,49.0,29.85,NNW,348,0.0,0.0,86,0.00,CLR,,0.43,WeatherDisplay:10.37,2013-09-09 04:01:00,
2013-09-08 20:02:00,53.1,49.0,29.85,NNW,348,0.0,0.0,86,0.00,CLR,,0.43,WeatherDisplay:10.37,2013-09-09 04:02:00,
2013-09-08 20:07:00,53.0,48.9,29.86,North,349,0.0,0.0,86,0.00,CLR,,0.43,WeatherDisplay:10.37,2013-09-09 04:07:00,
2013-09-08 20:12:00,53.0,48.9,29.86,North,349,0.0,0.0,86,0.00,CLR,,0.43,WeatherDisplay:10.37,2013-09-09 04:12:00,
2013-09-08 20:17:00,52.9,48.8,29.86,NNW,348,0.0,0.0,86,0.00,CLR,,0.43,WeatherDisplay:10.37,2013-09-09 04:17:00,
2013-09-08 20:22:00,52.9,48.8,29.86,North,349,0.0,0.0,86,0.00,CLR,,0.43,WeatherDisplay:10.37,2013-09-09 04:22:00,
2013-09-08 20:27:00,52.7,48.9,29.87,North,349,0.0,0.0,87,0.00,CLR,,0.43,WeatherDisplay:10.37,2013-09-09 04:27:00,
2013-09-08 20:32:00,52.5,49.0,29.87,North,349,0.0,0.0,88,0.01,RA,,0.44,WeatherDisplay:10.37,2013-09-09 04:32:00,
2013-09-08 20:37:00,52.1,49.0,29.87,NNW,348,0.0,0.0,89,0.01,RA,,0.44,WeatherDisplay:10.37,2013-09-09 04:37:00,
2013-09-08 20:42:00,51.9,48.8,29.87,NNW,348,0.0,0.0,89,0.01,CLR,,0.44,WeatherDisplay:10.37,2013-09-09 04:42:00,
2013-09-08 20:47:00,51.7,48.9,29.87,NNW,348,0.0,0.0,90,0.01,CLR,,0.44,WeatherDisplay:10.37,2013-09-09 04:47:00,
2013-09-08 20:52:00,51.5,48.7,29.87,NNW,348,0.0,0.0,90,0.01,CLR,,0.44,WeatherDisplay:10.37,2013-09-09 04:52:00,
2013-09-08 20:57:00,51.3,48.5,29.87,NNW,348,0.0,0.0,90,0.01,CLR,,0.44,WeatherDisplay:10.37,2013-09-09 04:57:00,
2013-09-08 21:02:00,51.2,47.8,29.87,NNW,348,0.0,0.0,88,0.01,CLR,,0.44,WeatherDisplay:10.37,2013-09-09 05:02:00,
2013-09-08 21:07:00,51.2,47.8,29.87,NNW,348,0.0,0.0,88,0.01,CLR,,0.44,WeatherDisplay:10.37,2013-09-09 05:07:00,
2013-09-08 21:12:00,51.3,47.9,29.87,NNW,348,0.0,0.0,88,0.01,CLR,,0.44,WeatherDisplay:10.37,2013-09-09 05:12:00,
2013-09-08 21:17:00,51.4,48.0,29.87,NNW,348,0.0,0.0,88,0.01,CLR,,0.44,WeatherDisplay:10.37,2013-09-09 05:17:00,
2013-09-08 21:22:00,51.5,48.1,29.87,NNW,348,0.0,0.0,88,0.01,CLR,,0.44,WeatherDisplay:10.37,2013-09-09 05:22:00,
2013-09-08 21:27:00,51.5,47.8,29.87,NNW,348,0.0,0.0,87,0.01,CLR,,0.44,WeatherDisplay:10.37,2013-09-09 05:27:00,
2013-09-08 21:32:00,51.6,47.9,29.88,NNW,348,0.0,0.0,87,0.00,CLR,,0.44,WeatherDisplay:10.37,2013-09-09 05:32:00,
2013-09-08 21:37:00,51.7,47.6,29.88,NNW,348,0.0,0.0,86,0.00,CLR,,0.44,WeatherDisplay:10.37,2013-09-09 05:37:00,
2013-09-08 21:42:00,51.7,47.6,29.88,North,349,0.0,0.0,86,0.00,CLR,,0.44,WeatherDisplay:10.37,2013-09-09 05:42:00,
2013-09-08 21:47:00,51.7,47.6,29.88,NNW,348,0.0,0.0,86,0.00,CLR,,0.44,WeatherDisplay:10.37,2013-09-09 05:47:00,
2013-09-08 21:52:00,51.6,47.5,29.88,NNW,348,0.0,0.0,86,0.00,CLR,,0.44,WeatherDisplay:10.37,2013-09-09 05:52:00,
2013-09-08 21:57:00,51.6,47.5,29.88,NNW,348,0.0,0.0,86,0.00,CLR,,0.44,WeatherDisplay:10.37,2013-09-09 05:57:00,
2013-09-08 22:02:00,51.6,47.9,29.88,North,349,0.0,0.0,87,0.00,CLR,,0.44,WeatherDisplay:10.37,2013-09-09 06:02:00,
2013-09-08 22:07:00,51.5,48.1,29.88,North,349,0.0,0.0,88,0.01,RA,,0.45,WeatherDisplay:10.37,2013-09-09 06:07:00,
2013-09-08 22:12:00,51.3,47.9,29.88,North,349,0.0,0.0,88,0.02,RA,,0.46,WeatherDisplay:10.37,2013-09-09 06:12:00,
2013-09-08 22:17:00,51.1,47.7,29.88,North,349,0.0,0.0,88,0.02,RA,,0.46,WeatherDisplay:10.37,2013-09-09 06:17:00,
2013-09-08 22:22:00,50.9,47.5,29.88,North,349,0.0,0.0,88,0.02,CLR,,0.46,WeatherDisplay:10.37,2013-09-09 06:22:00,
2013-09-08 22:27:00,50.9,47.2,29.88,NNW,348,0.0,0.0,87,0.02,CLR,,0.46,WeatherDisplay:10.37,2013-09-09 06:27:00,
2013-09-08 22:32:00,51.0,47.0,29.89,North,349,0.0,0.0,86,0.02,CLR,,0.46,WeatherDisplay:10.37,2013-09-09 06:32:00,
2013-09-08 22:37:00,51.0,46.6,29.89,North,349,0.0,0.0,85,0.02,CLR,,0.46,WeatherDisplay:10.37,2013-09-09 06:37:00,
2013-09-08 22:42:00,51.1,46.7,29.89,North,349,0.0,0.0,85,0.02,CLR,,0.46,WeatherDisplay:10.37,2013-09-09 06:42:00,
2013-09-08 22:47:00,51.2,46.8,29.89,North,349,0.0,0.0,85,0.02,CLR,,0.46,WeatherDisplay:10.37,2013-09-09 06:47:00,
2013-09-08 22:52:00,51.2,47.2,29.89,North,349,0.0,0.0,86,0.02,CLR,,0.46,WeatherDisplay:10.37,2013-09-09 06:52:00,
2013-09-08 22:57:00,51.1,47.1,29.89,North,349,0.0,0.0,86,0.02,CLR,,0.46,WeatherDisplay:10.37,2013-09-09 06:57:00,
2013-09-08 23:02:00,51.2,46.8,29.89,NNW,348,0.0,0.0,85,0.02,CLR,,0.46,WeatherDisplay:10.37,2013-09-09 07:02:00,
2013-09-08 23:07:00,51.3,46.6,29.88,North,349,0.0,0.0,84,0.01,CLR,,0.46,WeatherDisplay:10.37,2013-09-09 07:07:00,
2013-09-08 23:12:00,51.4,46.7,29.88,North,349,0.0,0.0,84,0.00,CLR,,0.46,WeatherDisplay:10.37,2013-09-09 07:12:00,
2013-09-08 23:17:00,51.5,46.8,29.88,North,349,0.0,0.0,84,0.00,CLR,,0.46,WeatherDisplay:10.37,2013-09-09 07:17:00,
2013-09-08 23:22:00,51.5,46.8,29.88,NNW,348,0.0,0.0,84,0.00,CLR,,0.46,WeatherDisplay:10.37,2013-09-09 07:22:00,
2013-09-08 23:27:00,51.7,46.4,29.88,North,349,0.0,0.0,82,0.00,CLR,,0.46,WeatherDisplay:10.37,2013-09-09 07:27:00,
2013-09-08 23:32:00,51.8,46.5,29.88,North,349,0.0,0.0,82,0.00,CLR,,0.46,WeatherDisplay:10.37,2013-09-09 07:32:00,
2013-09-08 23:37:00,51.9,46.6,29.88,NNW,348,0.0,0.0,82,0.00,CLR,,0.46,WeatherDisplay:10.37,2013-09-09 07:37:00,
2013-09-08 23:42:00,52.0,47.0,29.88,NNW,348,0.0,0.0,83,0.00,CLR,,0.46,WeatherDisplay:10.37,2013-09-09 07:42:00,
2013-09-08 23:47:00,52.0,47.0,29.88,North,349,0.0,0.0,83,0.00,CLR,,0.46,WeatherDisplay:10.37,2013-09-09 07:47:00,
2013-09-08 23:52:00,52.1,47.4,29.88,North,349,0.0,0.0,84,0.00,CLR,,0.46,WeatherDisplay:10.37,2013-09-09 07:52:00,
2013-09-08 23:57:00,52.1,47.7,29.88,NNW,348,0.0,0.0,85,0.00,CLR,,0.46,WeatherDisplay:10.37,2013-09-09 07:57:00,